Volver al catálogo

HULIANWANG DIGUI-18

ActivoComunicacionesLEO
NORAD 62978·PAYLOAD·🇨🇳 China

Lanzado Feb 11, 2025 desde Wenchang Space Launch Site

Loading…

Próximos Pases (próximas 24 horas)

TLE

ActualizadoSource: Space-Track

Época: Sep 14, 2026, 13:33 UTC

1 62978U 25030H   26257.56527417 -.00000096  00000-0  61051-4 0  9994
2 62978  50.0059 274.9940 0000521  27.4590 332.6309 13.29325665 77757

Sigue HULIANWANG DIGUI-18 en tiempo real con AllMySat

Download on the App Store